TimeAKDT,TemperatureF,Dew PointF,Humidity,Sea Level PressureIn,VisibilityMPH,Wind Direction,Wind SpeedMPH,Gust SpeedMPH,PrecipitationIn,Events,Conditions,WindDirDegrees,DateUTC
12:16 AM,35.6,32.0,87,30.13,10.0,SW,17.3,-,N/A,,Clear,220,2012-10-22 08:16:00
12:36 AM,35.6,32.0,87,30.14,10.0,SW,17.3,-,N/A,,Clear,220,2012-10-22 08:36:00
12:56 AM,35.6,32.0,87,30.15,10.0,SW,17.3,-,N/A,,Mostly Cloudy,220,2012-10-22 08:56:00
1:16 AM,35.6,32.0,87,30.16,10.0,SW,15.0,-,N/A,,Overcast,220,2012-10-22 09:16:00
1:36 AM,37.4,32.0,81,30.17,10.0,WSW,13.8,18.4,N/A,,Overcast,240,2012-10-22 09:36:00
1:56 AM,35.6,33.8,93,30.18,10.0,WSW,13.8,-,N/A,,Overcast,240,2012-10-22 09:56:00
2:16 AM,37.4,33.8,87,30.18,10.0,WSW,10.4,-,N/A,,Overcast,240,2012-10-22 10:16:00
2:36 AM,35.6,32.0,87,30.19,10.0,SW,12.7,-,N/A,,Scattered Clouds,230,2012-10-22 10:36:00
2:56 AM,35.6,30.2,81,30.20,10.0,SW,15.0,-,N/A,,Partly Cloudy,220,2012-10-22 10:56:00
3:16 AM,37.4,33.8,87,30.20,10.0,SW,15.0,-,N/A,,Mostly Cloudy,220,2012-10-22 11:16:00
3:36 AM,35.6,32.0,87,30.21,10.0,SW,15.0,-,N/A,,Overcast,220,2012-10-22 11:36:00
3:56 AM,37.4,32.0,81,30.22,10.0,SW,12.7,-,N/A,,Overcast,220,2012-10-22 11:56:00
4:16 AM,35.6,32.0,87,30.22,10.0,SW,12.7,-,N/A,,Overcast,220,2012-10-22 12:16:00
4:36 AM,37.4,32.0,81,30.23,10.0,SW,11.5,-,N/A,,Overcast,220,2012-10-22 12:36:00
4:56 AM,37.4,32.0,81,30.24,10.0,SW,12.7,-,N/A,,Overcast,230,2012-10-22 12:56:00
5:16 AM,35.6,33.8,93,30.25,10.0,WSW,12.7,-,N/A,,Overcast,240,2012-10-22 13:16:00
5:36 AM,37.4,33.8,87,30.25,10.0,WSW,12.7,-,N/A,,Overcast,240,2012-10-22 13:36:00
6:16 AM,37.4,32.0,81,30.27,10.0,WSW,15.0,-,N/A,,Overcast,240,2012-10-22 14:16:00
6:36 AM,35.6,32.0,87,30.27,10.0,SW,15.0,-,N/A,,Overcast,230,2012-10-22 14:36:00
6:56 AM,37.4,32.0,81,30.27,10.0,SW,13.8,-,N/A,,Overcast,230,2012-10-22 14:56:00
7:16 AM,37.4,32.0,81,30.28,10.0,SSW,12.7,-,N/A,,Overcast,210,2012-10-22 15:16:00
7:36 AM,37.4,33.8,87,30.29,10.0,SSW,11.5,-,N/A,,Overcast,210,2012-10-22 15:36:00
7:56 AM,37.4,32.0,81,30.29,10.0,SSW,13.8,-,N/A,,Overcast,210,2012-10-22 15:56:00
8:16 AM,37.4,32.0,81,30.30,10.0,SSW,12.7,-,N/A,,Overcast,210,2012-10-22 16:16:00
8:36 AM,37.4,32.0,81,30.31,10.0,SW,11.5,-,N/A,,Overcast,220,2012-10-22 16:36:00
8:56 AM,37.4,32.0,81,30.32,10.0,SW,12.7,-,N/A,,Overcast,220,2012-10-22 16:56:00
9:16 AM,37.4,32.0,81,30.32,10.0,SW,13.8,-,N/A,,Overcast,220,2012-10-22 17:16:00
9:36 AM,37.4,32.0,81,30.33,10.0,SW,10.4,-,N/A,,Overcast,230,2012-10-22 17:36:00
9:56 AM,37.4,32.0,81,30.34,10.0,SW,11.5,-,N/A,,Overcast,230,2012-10-22 17:56:00
10:16 AM,37.4,32.0,81,30.34,10.0,SW,15.0,-,N/A,,Overcast,230,2012-10-22 18:16:00
10:36 AM,37.4,32.0,81,30.34,10.0,SW,11.5,-,N/A,,Overcast,230,2012-10-22 18:36:00
10:56 AM,37.4,32.0,81,30.35,10.0,SSW,13.8,-,N/A,,Overcast,210,2012-10-22 18:56:00
11:16 AM,37.4,32.0,81,30.35,10.0,SSW,17.3,-,N/A,,Overcast,210,2012-10-22 19:16:00
11:36 AM,37.4,33.8,87,30.35,10.0,SSW,16.1,-,N/A,,Overcast,210,2012-10-22 19:36:00
11:56 AM,37.4,33.8,87,30.36,10.0,SSW,15.0,-,N/A,,Mostly Cloudy,210,2012-10-22 19:56:00
12:16 PM,37.4,33.8,87,30.37,10.0,SSW,13.8,-,N/A,,Mostly Cloudy,210,2012-10-22 20:16:00
12:36 PM,37.4,33.8,87,30.37,10.0,SW,16.1,-,N/A,,Mostly Cloudy,220,2012-10-22 20:36:00
12:56 PM,37.4,35.6,93,30.38,10.0,SW,13.8,-,N/A,,Overcast,230,2012-10-22 20:56:00
1:16 PM,39.2,35.6,87,30.39,10.0,SSW,16.1,21.9,N/A,,Overcast,210,2012-10-22 21:16:00
1:36 PM,37.4,33.8,87,30.39,10.0,SSW,18.4,24.2,N/A,,Overcast,200,2012-10-22 21:36:00
1:56 PM,37.4,35.6,93,30.39,10.0,SW,11.5,23.0,N/A,,Mostly Cloudy,220,2012-10-22 21:56:00
2:16 PM,37.4,33.8,87,30.39,10.0,SSW,13.8,21.9,N/A,,Partly Cloudy,200,2012-10-22 22:16:00
2:36 PM,39.2,35.6,87,30.40,10.0,SSW,21.9,-,N/A,,Partly Cloudy,200,2012-10-22 22:36:00
2:56 PM,39.2,35.6,87,30.41,10.0,SSW,12.7,24.2,N/A,,Scattered Clouds,200,2012-10-22 22:56:00
3:16 PM,39.2,35.6,87,30.41,10.0,SSW,13.8,-,N/A,,Overcast,200,2012-10-22 23:16:00
3:36 PM,39.2,35.6,87,30.42,10.0,SSW,17.3,23.0,N/A,,Overcast,200,2012-10-22 23:36:00
3:56 PM,39.2,35.6,87,30.43,10.0,SSW,16.1,26.5,N/A,,Scattered Clouds,200,2012-10-22 23:56:00
4:16 PM,39.2,35.6,87,30.43,10.0,SSW,15.0,27.6,N/A,,Partly Cloudy,200,2012-10-23 00:16:00
4:36 PM,39.2,33.8,81,30.43,10.0,SSW,9.2,27.6,N/A,,Partly Cloudy,210,2012-10-23 00:36:00
4:56 PM,39.2,33.8,81,30.44,10.0,SSW,12.7,23.0,N/A,,Partly Cloudy,200,2012-10-23 00:56:00
5:16 PM,37.4,33.8,87,30.44,10.0,SSW,18.4,26.5,N/A,,Clear,200,2012-10-23 01:16:00
5:36 PM,39.2,33.8,81,30.45,10.0,South,10.4,-,N/A,,Partly Cloudy,190,2012-10-23 01:36:00
5:56 PM,39.2,33.8,81,30.46,10.0,South,16.1,-,N/A,,Mostly Cloudy,190,2012-10-23 01:56:00
6:16 PM,39.2,33.8,81,30.46,10.0,South,12.7,-,N/A,,Overcast,180,2012-10-23 02:16:00
6:36 PM,39.2,33.8,81,30.46,10.0,South,15.0,19.6,N/A,,Overcast,180,2012-10-23 02:36:00
6:56 PM,39.2,33.8,81,30.46,10.0,South,10.4,-,N/A,,Overcast,180,2012-10-23 02:56:00
7:16 PM,37.4,32.0,81,30.47,10.0,South,10.4,-,N/A,,Mostly Cloudy,180,2012-10-23 03:16:00
7:36 PM,37.4,32.0,81,30.47,10.0,South,11.5,-,N/A,,Overcast,180,2012-10-23 03:36:00
7:56 PM,37.4,32.0,81,30.47,10.0,SSE,6.9,-,N/A,,Overcast,160,2012-10-23 03:56:00
8:16 PM,37.4,33.8,87,30.48,10.0,East,5.8,-,N/A,,Overcast,90,2012-10-23 04:16:00
8:36 PM,35.6,33.8,93,30.48,10.0,ENE,4.6,-,N/A,,Overcast,60,2012-10-23 04:36:00
8:56 PM,37.4,33.8,87,30.49,10.0,ENE,3.5,-,N/A,,Overcast,60,2012-10-23 04:56:00
9:16 PM,35.6,30.2,81,30.49,10.0,SSE,6.9,-,N/A,,Overcast,160,2012-10-23 05:16:00
9:36 PM,35.6,30.2,81,30.49,10.0,South,15.0,-,N/A,,Scattered Clouds,180,2012-10-23 05:36:00
9:56 PM,35.6,30.2,81,30.50,10.0,South,16.1,-,N/A,,Clear,180,2012-10-23 05:56:00
10:16 PM,35.6,30.2,81,30.50,10.0,South,15.0,-,N/A,,Clear,180,2012-10-23 06:16:00
10:36 PM,35.6,30.2,81,30.51,10.0,SSE,6.9,-,N/A,,Clear,160,2012-10-23 06:36:00
10:56 PM,35.6,32.0,87,30.52,10.0,ENE,8.1,-,N/A,,Clear,60,2012-10-23 06:56:00
11:16 PM,35.6,30.2,81,30.53,10.0,NE,3.5,-,N/A,,Clear,50,2012-10-23 07:16:00
11:36 PM,33.8,30.2,87,30.53,10.0,Calm,Calm,-,N/A,,Clear,0,2012-10-23 07:36:00
11:56 PM,35.6,30.2,81,30.53,10.0,Calm,Calm,-,N/A,,Clear,0,2012-10-23 07:56:00